User: anonymous   Login
Location: Gisborne
(38.6530°S, 178.0040°E)
Time: 22:26:11
(UTC+13:00)
Language:

Meteor 2-6 Rocket - Orbit

View from above orbital plane
View from above orbital plane
View from above satellite
View from above satellite

Ground track
Ground track

The orbit data is extracted from the following two-line orbital elements,

1 11963U 80073B   19079.82953533 -.00000096  00000-0 -60567-4 0  9997
2 11963  81.2774 222.4372 0076035  62.1504 298.7343 14.09704773980928
Epoch (UTC): 20 March 2019 19:54:31
Eccentricity: 0.0076035
inclination: 81.2774°
perigee height: 805 km
apogee height: 915 km
right ascension of ascending node: 222.4372°
argument of perigee: 62.1504°
revolutions per day: 14.09704773
mean anomaly at epoch: 298.7343°
orbit number at epoch: 98092

The dashed part of the orbit path shows where the satellite is in the earth's shadow,  

DLR